Theta_e
299 299 300 299 299 299 299 299 299 299 300 301 301 302 305 309 310 308 308 309 307 311 316 309 305 310 310 306 306 306 309 312 310 308 307 309 311 312 312 312 311 311 312 311 312 311 311 311 312 312 311 310 309 309 309 308 307 309 311 311 309 308 309 310 310 309 309 307 305 306 306 306 307 308 307 305 306 308 305 308 314 315 313 313 313 313 318
300 299 299 300 299 299 298 299 299 299 300 300 300 304 307 305 305 307 308 308 309 310 310 309 309 309 306 305 307 306 308 309 307 305 308 308 307 309 312 312 310 309 309 309 310 311 310 311 312 312 311 311 311 311 310 308 307 309 311 311 310 309 310 310 310 311 311 310 309 308 307 307 309 312 310 306 307 306 305 308 312 312 312 312 312 312 314
299 299 299 299 299 299 298 299 299 299 300 300 301 303 304 304 305 306 305 305 308 309 309 308 308 307 305 306 308 307 305 306 304 305 307 307 305 307 309 310 310 310 309 308 308 309 309 310 311 311 311 311 310 312 312 309 307 308 310 310 309 310 311 310 311 313 313 313 313 311 310 309 310 311 309 307 308 307 306 310 312 311 312 313 312 311 310
299 299 300 299 299 298 299 299 299 299 300 301 301 301 303 306 309 309 308 306 306 307 307 305 304 305 305 306 308 306 304 304 304 305 306 306 305 306 309 309 310 310 308 305 306 307 308 310 310 310 311 310 310 313 312 309 307 309 311 311 309 310 311 310 311 312 312 312 312 310 311 312 311 311 310 307 307 306 307 311 313 312 311 314 317 315 311
300 299 300 300 299 299 299 299 299 299 300 301 301 302 302 305 307 307 306 307 307 306 304 303 303 303 304 305 306 304 304 304 304 304 305 305 305 306 309 308 306 306 305 304 305 307 307 308 309 310 310 310 309 309 308 307 308 312 314 311 310 312 311 310 311 311 311 311 311 310 310 311 311 312 313 311 307 306 307 308 311 313 312 312 316 318 315
300 299 300 300 299 299 299 299 299 299 300 300 301 303 303 302 303 302 301 304 306 305 304 303 303 303 303 305 305 304 304 304 303 304 304 305 305 305 307 307 304 304 304 304 306 306 305 307 310 309 309 308 307 307 307 308 311 315 312 309 310 312 311 311 312 311 311 310 310 310 309 309 309 310 312 313 310 307 307 307 309 313 314 311 313 317 316
300 299 299 300 300 300 299 299 299 299 300 300 301 304 304 301 302 302 300 302 304 303 303 303 303 304 305 305 304 303 304 303 303 303 304 304 305 304 305 305 304 303 303 303 305 305 305 307 307 306 306 306 306 307 309 312 315 316 311 308 310 312 312 312 312 312 312 311 311 311 310 309 310 311 312 313 312 309 308 307 308 311 312 311 312 315 315
301 300 299 300 300 300 299 299 299 299 300 301 300 302 303 302 302 302 301 302 303 303 304 303 302 304 305 305 304 303 303 303 302 302 303 304 305 305 304 304 303 303 303 303 304 304 305 305 305 304 305 305 306 308 310 312 315 315 313 311 310 311 313 313 313 313 314 314 314 313 311 311 312 313 314 314 313 311 307 306 308 311 311 311 312 313 313
302 301 300 299 300 300 299 299 299 298 299 301 300 300 301 301 301 301 301 303 304 303 303 303 302 304 305 304 303 302 302 303 302 302 303 304 305 305 304 304 303 303 303 303 304 304 304 304 304 304 304 304 305 307 308 309 310 310 312 312 311 311 313 314 314 315 315 315 317 316 313 313 314 315 316 315 315 314 310 308 309 310 310 311 312 312 311
302 302 301 299 299 300 299 298 299 299 298 299 299 299 300 300 301 301 301 303 303 302 303 303 303 305 304 302 302 302 302 303 302 303 303 303 304 304 303 303 303 303 304 304 304 304 303 303 303 303 303 303 303 304 305 306 307 308 311 313 312 312 312 313 314 315 315 315 317 316 315 315 316 315 315 316 316 316 315 314 313 311 310 311 312 311 312
302 302 301 300 299 299 300 299 299 299 298 298 299 299 300 300 301 301 301 303 303 302 302 303 303 303 303 302 301 301 302 302 302 302 303 302 303 303 302 303 303 303 304 304 303 303 302 302 302 302 303 303 303 304 304 304 305 307 309 313 315 314 312 313 314 315 316 316 316 316 316 316 316 313 313 316 317 317 318 318 317 315 313 314 316 316 318
301 302 302 301 300 299 299 299 299 299 298 298 298 299 299 299 300 301 302 303 302 301 302 302 301 302 302 301 301 301 302 302 302 302 302 302 302 302 302 303 304 304 304 302 302 301 302 304 307 308 308 307 307 306 306 308 309 310 310 312 315 315 313 313 314 315 316 316 316 318 319 317 315 314 314 316 316 316 318 318 318 319 319 320 322 321 320
301 301 301 301 300 300 299 299 299 299 298 298 298 298 299 299 300 301 302 303 302 301 301 301 301 302 302 301 300 301 302 302 302 302 302 302 302 302 302 303 303 303 302 301 301 302 305 308 312 313 311 310 313 312 309 310 311 312 312 313 315 316 315 313 314 315 316 316 318 320 319 316 315 315 315 316 315 315 318 319 319 321 322 322 321 320 318
301 301 301 301 301 300 299 299 299 299 298 298 298 298 299 299 300 300 301 302 302 301 301 301 301 301 301 301 300 301 302 302 302 302 302 302 302 302 302 302 302 301 301 301 303 306 308 309 311 312 310 310 315 315 310 308 307 307 310 311 312 316 316 314 314 316 317 318 319 319 317 316 316 317 316 317 317 318 318 320 320 321 321 321 321 320 318
301 301 301 301 301 301 300 299 299 299 298 298 298 298 299 300 300 300 301 301 301 301 301 302 301 301 301 301 300 301 301 301 301 301 301 302 302 302 302 301 300 300 300 302 306 309 309 308 308 309 309 310 312 310 307 306 305 304 305 306 308 315 317 315 316 317 317 318 320 321 320 318 316 316 315 315 317 318 318 319 321 321 320 320 321 321 321
301 301 301 301 301 301 300 299 299 299 298 298 298 297 298 300 300 300 301 301 301 302 302 302 301 301 300 300 300 300 301 301 301 302 302 302 301 301 300 300 300 301 302 304 307 308 308 307 306 306 308 309 308 305 305 305 303 303 304 304 307 315 318 315 315 317 317 318 320 321 320 318 315 315 315 315 316 317 317 320 323 322 319 319 320 321 322
302 301 301 301 301 301 301 300 299 299 298 298 298 297 298 299 300 300 300 301 301 301 301 300 300 300 301 301 300 300 301 301 301 302 303 301 301 301 300 301 302 302 303 305 307 307 307 306 305 305 307 308 305 304 305 304 304 305 305 304 307 313 316 315 315 316 317 318 320 320 318 317 316 317 317 316 316 316 317 321 322 319 319 320 320 320 322
304 302 301 301 301 301 301 300 299 299 299 298 298 298 298 299 300 300 300 300 300 300 300 299 300 301 301 301 300 300 301 301 301 302 302 301 301 302 301 302 302 302 303 305 306 306 307 305 304 305 307 307 306 305 304 304 305 306 305 305 309 312 314 314 314 314 315 317 319 320 319 318 317 317 317 317 316 317 319 321 320 318 319 321 320 320 322
305 304 302 301 300 301 301 300 300 299 299 299 298 298 299 299 299 300 300 300 300 300 300 300 300 301 300 300 300 300 301 301 301 302 302 302 302 302 301 301 302 302 303 304 304 305 306 306 306 305 307 308 306 305 304 305 305 305 305 307 310 312 312 311 312 314 315 317 319 320 319 318 316 317 318 318 317 318 319 319 319 319 320 320 320 321 321
306 305 304 302 301 300 301 301 300 300 299 299 298 298 299 299 299 299 300 300 300 300 300 299 300 300 300 300 301 301 301 300 300 300 301 302 301 301 302 303 302 302 303 304 304 304 305 306 306 305 305 307 306 304 305 305 305 304 305 308 312 313 311 309 311 313 313 315 318 319 317 315 316 317 316 316 317 318 318 319 319 319 319 319 320 320 321
307 306 305 303 301 300 301 301 301 300 299 299 299 299 299 299 299 299 300 300 300 300 299 299 299 299 299 299 300 300 300 300 300 300 300 300 300 301 303 304 302 302 303 304 304 305 305 305 305 304 304 306 305 304 305 305 305 306 307 309 313 313 309 308 310 312 312 312 315 316 314 313 316 317 316 315 316 318 319 319 319 319 319 319 320 320 320
307 306 306 304 302 301 301 301 301 300 300 299 299 299 299 299 299 299 299 299 299 299 299 299 299 299 299 299 299 299 299 299 300 299 299 299 300 300 301 302 301 301 302 304 304 304 304 304 304 304 304 305 305 305 305 305 307 308 308 309 310 308 306 307 309 311 311 312 312 312 312 312 314 314 314 314 316 317 319 319 319 319 320 319 319 320 320
308 307 306 305 303 301 301 301 301 300 300 300 299 299 299 299 299 299 299 299 299 299 299 298 298 299 299 299 299 299 299 299 299 299 299 299 300 300 300 301 301 300 302 303 303 303 303 303 303 303 304 305 305 306 306 305 306 308 307 307 307 306 306 308 309 309 310 311 311 311 310 310 310 310 311 314 317 317 318 319 319 319 319 320 320 320 319
308 307 306 305 304 302 301 301 301 301 300 300 299 299 298 299 299 299 299 299 298 299 299 298 298 300 301 300 300 300 300 299 300 300 299 299 300 300 300 300 300 301 303 303 301 301 303 303 302 303 305 305 305 306 306 306 306 307 306 306 307 307 307 306 307 308 309 310 310 308 307 308 308 308 309 313 315 314 315 316 318 319 319 319 320 319 319
308 307 306 305 304 303 301 301 301 301 300 300 299 298 298 299 299 298 299 299 299 299 300 300 300 300 300 300 300 300 300 300 300 300 300 299 299 300 300 300 300 300 301 300 299 300 302 301 301 303 304 304 304 305 305 305 306 305 305 306 307 306 306 306 308 310 309 308 307 306 307 308 308 309 310 310 310 311 311 312 314 317 318 319 319 320 320
308 307 306 305 305 303 302 301 301 301 300 300 299 298 298 299 299 299 299 299 299 299 299 300 300 300 299 300 300 300 300 300 299 300 300 300 299 300 300 299 299 299 299 298 299 300 300 300 301 302 303 304 304 305 307 306 305 305 305 305 305 305 305 307 308 308 308 308 307 307 308 310 310 309 310 309 309 311 311 310 313 317 319 319 319 319 319
308 307 306 305 305 304 302 301 301 301 300 299 299 299 298 298 298 299 299 299 299 300 300 299 299 299 299 300 300 300 299 299 299 299 299 299 300 300 299 299 299 299 298 298 299 299 299 300 301 302 304 305 304 305 308 306 304 305 305 305 305 306 306 306 306 307 308 308 307 307 308 310 310 309 309 310 310 310 311 312 315 318 319 319 319 319 319
308 307 306 305 305 304 303 301 301 301 300 299 299 298 298 298 298 299 299 299 299 300 300 299 299 299 300 300 300 299 299 299 298 298 298 298 298 299 298 298 298 298 298 298 300 300 301 303 303 304 305 304 304 306 307 305 305 306 306 305 306 306 305 305 306 308 308 307 306 307 308 309 309 309 310 310 310 311 312 314 316 318 319 319 319 319 319
308 307 306 306 304 304 303 301 301 300 299 299 299 298 298 299 299 299 299 299 299 299 299 299 299 300 301 301 300 299 299 298 297 297 297 297 296 297 297 297 297 298 298 299 301 302 304 305 305 305 306 305 305 307 307 306 307 307 305 305 306 306 305 306 307 307 307 307 306 307 308 309 310 310 310 310 310 311 312 312 314 316 318 318 318 319 319
307 307 306 305 304 304 303 302 301 300 299 299 299 298 299 299 299 299 300 300 299 299 299 300 300 300 300 300 299 298 298 297 297 297 297 296 296 296 296 296 297 297 298 300 301 302 304 305 306 307 307 304 305 307 307 307 309 308 305 305 307 307 306 307 307 307 307 307 307 307 308 309 310 310 310 310 310 310 311 312 313 315 317 318 319 318 318
307 306 306 305 304 304 303 302 301 300 299 299 299 299 300 301 301 300 300 300 300 299 299 300 299 299 299 298 297 297 297 297 297 297 297 297 298 298 297 297 298 298 299 302 302 302 304 306 306 308 307 304 304 308 308 307 309 308 306 307 307 307 306 306 305 306 307 307 307 307 308 309 309 309 309 309 309 309 310 311 313 315 317 318 317 317 318
306 306 305 305 304 303 303 302 301 299 299 298 299 299 300 300 300 300 300 300 299 299 299 300 299 298 299 299 297 297 297 297 297 298 298 299 301 301 299 299 299 299 301 303 303 303 306 307 307 307 307 305 306 308 308 307 308 307 307 307 307 306 305 304 304 305 306 306 306 307 308 309 309 308 309 308 308 309 311 311 313 314 315 316 317 317 317
306 305 305 304 304 303 302 302 300 299 299 298 299 299 299 300 300 300 300 300 299 298 298 299 299 299 298 298 299 298 298 299 301 301 301 301 301 301 303 304 302 301 302 303 303 305 306 306 305 307 307 306 306 308 308 307 307 307 306 307 306 304 303 302 303 304 304 304 305 306 307 308 308 308 308 308 309 310 311 311 312 314 315 318 321 320 318
306 305 304 304 303 302 302 301 300 299 299 298 299 299 299 299 300 300 300 300 299 299 298 298 299 300 298 298 300 300 298 299 302 303 303 302 299 300 304 307 305 303 302 303 305 306 305 305 306 308 306 304 305 307 306 306 307 306 306 305 304 302 302 301 301 302 302 302 303 305 306 307 307 307 307 308 309 310 310 310 312 314 317 320 322 321 319
305 304 304 304 303 302 302 300 299 299 299 299 299 299 299 300 300 299 300 300 299 299 299 298 299 300 298 299 301 300 297 299 302 302 303 302 299 300 303 305 305 306 304 303 304 305 305 307 307 306 305 305 306 308 308 307 308 306 304 303 303 302 301 301 300 300 301 301 303 304 305 305 306 306 307 309 309 309 310 310 311 312 316 319 321 320 319
304 304 303 303 302 301 300 299 299 299 299 299 300 300 300 300 300 300 300 300 299 300 300 299 299 299 298 299 301 300 298 300 302 302 302 302 301 302 303 303 305 307 304 302 304 305 305 305 304 305 307 307 307 308 309 308 307 305 303 302 302 301 301 300 300 300 301 301 302 304 304 304 305 306 307 308 309 309 310 311 310 311 313 315 317 318 318
304 303 303 302 300 300 299 299 299 299 299 299 300 300 300 300 300 300 300 300 299 299 299 299 300 299 298 299 300 299 299 301 301 302 305 304 302 303 303 303 305 307 305 306 309 307 304 304 304 306 310 309 307 308 310 308 306 305 303 302 302 300 299 299 299 299 300 301 302 303 303 303 304 305 306 307 308 309 309 310 311 311 311 312 315 317 316
303 302 301 300 299 298 298 299 299 299 299 300 300 300 299 299 299 299 300 300 300 300 299 299 300 299 298 299 299 298 299 300 300 302 305 304 301 302 302 304 306 305 302 305 307 304 303 306 307 307 310 310 308 308 308 306 305 305 303 302 301 299 299 299 299 299 300 301 301 302 302 302 303 304 305 307 307 308 309 310 310 310 310 312 315 316 315
302 300 299 299 299 299 299 299 299 299 300 300 300 300 299 298 299 299 299 299 300 300 299 299 300 299 298 298 298 298 298 299 300 302 304 303 302 302 302 303 304 302 300 303 305 302 303 307 308 306 308 308 307 306 305 304 303 302 302 301 300 298 298 298 298 299 300 300 301 301 301 302 302 303 305 306 306 307 308 309 309 309 311 313 315 315 316
300 299 298 299 299 299 299 299 300 300 300 299 299 299 299 298 299 299 299 298 299 299 299 299 299 299 298 298 299 298 297 299 301 303 303 303 303 302 301 301 302 300 300 304 305 303 302 304 305 305 305 305 304 304 303 302 301 300 299 299 298 297 297 298 297 298 299 299 300 300 300 301 302 303 304 305 305 306 308 309 309 309 310 312 313 315 316
299 299 299 299 299 299 300 300 300 300 300 299 299 300 299 300 299 298 298 299 299 298 298 298 299 299 298 297 298 299 298 298 300 301 301 303 303 301 300 302 301 299 301 304 305 303 302 303 305 305 304 303 303 303 302 300 299 298 298 298 297 297 297 297 297 298 298 298 299 299 299 300 302 303 303 303 304 305 307 309 309 309 309 310 312 313 313
300 299 299 299 299 300 300 300 299 299 300 299 300 300 300 300 299 298 299 300 300 299 299 299 300 302 300 297 297 299 299 298 299 299 300 303 303 301 300 302 301 300 303 305 303 302 302 303 305 306 305 303 303 303 301 299 298 297 297 297 297 296 296 297 297 297 298 298 298 298 298 299 301 301 301 302 303 305 308 309 309 308 309 309 310 310 310
300 300 299 300 299 299 300 300 299 299 300 300 300 301 300 299 299 300 300 300 300 299 300 299 299 299 299 297 298 299 299 298 299 299 299 301 302 301 300 301 302 302 303 304 302 301 303 304 305 305 304 302 302 302 300 298 297 297 296 296 295 295 296 297 297 297 297 297 297 298 298 299 300 300 300 301 303 306 308 309 308 308 308 309 309 309 309
300 299 299 299 299 299 300 301 300 300 301 301 301 301 302 301 301 300 301 302 301 300 301 302 301 301 300 300 299 299 299 298 299 299 299 300 301 302 301 303 304 303 302 302 303 303 302 303 304 304 302 301 301 299 298 297 296 296 295 295 295 295 296 296 297 297 296 296 296 297 297 298 299 299 299 301 304 307 309 309 308 308 308 309 309 308 308
299 299 299 300 300 299 300 301 300 300 301 301 300 301 302 303 303 301 301 302 302 301 301 303 303 302 301 300 299 300 301 301 299 299 299 299 300 301 301 303 304 303 301 302 305 304 302 303 304 302 300 300 299 297 296 296 295 295 295 295 295 296 296 297 296 296 295 295 295 296 296 297 298 298 299 302 305 307 309 309 308 308 308 309 308 307 307
299 300 300 301 301 300 300 301 301 301 301 301 301 301 301 302 303 303 301 300 302 302 302 302 302 302 302 300 298 300 301 300 299 299 300 300 300 302 302 301 301 302 302 304 305 304 302 302 302 300 299 298 297 296 295 295 294 294 294 295 295 296 296 295 295 294 294 294 294 295 295 296 297 298 300 302 305 307 309 309 308 308 309 308 307 307 307
299 299 300 301 301 300 300 302 302 302 302 302 301 300 300 300 301 302 301 300 302 304 303 301 300 300 300 298 298 300 301 301 299 300 300 299 299 302 302 300 300 303 304 303 303 303 302 301 301 299 298 297 295 294 294 294 293 294 294 295 295 295 294 293 293 293 293 293 293 294 294 295 297 298 300 302 305 308 309 308 308 309 309 309 308 308 307
300 299 300 302 302 301 300 302 302 301 302 302 302 300 299 299 299 301 301 301 301 302 302 300 299 300 300 300 298 299 300 300 299 300 300 299 299 301 303 303 302 303 303 302 302 301 301 300 299 297 296 295 294 293 293 293 293 294 294 294 294 293 292 292 292 292 292 293 293 294 294 296 297 299 301 303 306 308 308 308 308 308 308 308 309 309 308
299 299 300 301 301 301 301 301 301 300 301 301 301 300 299 299 300 300 300 301 301 301 301 302 302 301 300 300 299 298 299 299 298 299 301 302 302 303 304 303 301 301 302 303 302 301 300 299 297 295 294 293 293 293 293 293 294 294 293 293 292 292 292 292 292 292 293 293 294 294 295 296 297 299 302 305 307 308 308 308 308 308 307 308 309 308 307
298 299 300 300 301 301 301 300 300 301 300 300 300 300 299 300 301 300 298 298 301 301 300 301 303 301 300 299 299 300 300 300 300 300 301 303 304 304 304 302 301 302 302 302 301 300 298 297 295 293 293 292 292 293 293 293 292 292 292 292 292 292 292 292 292 293 293 294 294 295 296 297 299 301 305 307 308 308 307 308 308 307 307 307 308 307 305
298 299 300 300 300 302 302 300 300 302 301 300 300 301 299 300 302 301 297 296 299 300 300 301 302 301 300 300 301 301 300 299 299 299 300 301 303 302 301 301 302 303 302 301 299 298 296 295 293 293 292 292 292 292 292 291 291 291 292 292 292 292 292 292 293 293 294 295 295 296 298 299 301 303 306 307 307 307 308 308 307 305 305 306 306 306 305
298 300 300 299 299 301 301 300 300 301 301 300 301 300 299 300 302 301 296 296 299 302 302 301 301 301 300 300 301 300 299 299 299 299 299 300 301 300 299 301 302 301 301 300 299 297 295 293 292 292 292 292 291 291 291 291 291 291 291 291 291 291 291 292 293 293 294 294 295 295 297 299 301 304 307 308 308 309 310 308 306 304 304 305 305 305 305
Wind_Speed
20 22 22 22 23 24 25 26 28 31 31 29 24 12 3 2 1 5 7 8 8 6 3 3 3 0 3 2 2 3 2 2 3 4 4 2 1 2 1 1 1 2 2 2 2 3 3 4 5 4 4 6 9 6 3 1 3 3 1 1 3 2 1 4 6 5 7 9 4 4 4 2 1 3 4 5 3 2 3 3 2 2 2 2 2 4 7
19 21 22 22 23 24 25 25 26 28 28 27 20 7 1 0 3 3 6 8 6 5 3 2 3 3 4 3 3 3 2 2 4 3 3 2 1 2 2 1 1 2 2 2 3 3 3 4 5 5 4 5 6 5 5 4 4 4 3 3 4 2 2 2 3 4 4 4 3 2 2 1 3 4 4 6 6 4 3 1 2 2 5 6 4 5 7
18 19 21 22 23 24 25 24 25 25 24 23 16 4 1 2 1 2 5 8 6 4 3 1 1 3 4 3 5 4 2 3 4 4 3 2 1 2 2 1 0 2 2 3 5 5 4 4 4 4 4 5 6 4 6 7 6 7 9 6 5 2 2 2 3 4 3 3 1 1 0 1 3 3 4 8 9 9 5 1 3 4 5 5 4 6 8
17 17 19 21 23 24 24 23 24 24 21 20 15 5 1 2 1 3 5 6 6 2 2 3 2 2 2 2 3 4 4 5 4 2 2 1 2 2 2 1 2 2 5 7 7 5 5 7 5 7 7 6 5 4 6 8 10 16 15 9 7 1 3 4 6 7 5 5 5 3 3 2 3 5 5 7 9 11 7 3 4 5 4 3 5 7 10
16 16 16 19 22 23 23 23 23 23 20 18 13 4 2 2 1 1 3 3 3 3 2 4 2 1 1 1 2 4 5 6 5 3 2 3 5 2 1 3 4 4 7 8 8 6 5 7 8 10 10 8 7 8 10 12 13 15 8 10 8 2 4 5 9 12 11 9 11 8 4 5 6 6 6 6 6 7 7 7 6 4 2 6 8 8 9
15 15 15 17 19 21 23 23 23 22 19 15 9 3 2 2 1 0 1 2 1 2 3 4 4 3 2 1 2 4 5 6 5 4 3 4 5 2 2 4 5 6 7 5 6 8 9 7 6 6 8 9 11 11 9 7 6 5 3 7 4 1 4 4 6 11 12 11 12 12 7 7 8 8 8 7 6 7 10 12 9 5 6 10 8 7 9
14 15 14 15 17 19 21 21 22 21 17 12 8 4 2 2 1 1 2 1 2 2 3 5 4 5 3 1 3 4 4 5 4 4 4 4 3 1 3 7 9 9 8 4 4 7 7 7 7 8 10 11 10 8 8 6 3 6 5 3 0 1 4 4 4 10 12 10 13 13 9 7 8 9 10 9 9 10 11 12 10 9 11 13 10 9 12
14 14 14 13 14 17 18 19 20 20 15 10 8 6 3 2 1 2 2 2 3 2 2 3 2 3 3 2 2 3 3 5 6 4 3 4 4 2 5 9 10 11 11 6 6 8 7 9 13 12 12 12 8 4 4 3 3 4 2 3 2 3 4 3 3 6 11 7 8 10 10 9 9 8 8 8 8 9 9 10 9 8 11 13 13 13 13
13 13 13 13 13 14 16 16 18 19 15 9 7 6 5 3 1 1 1 2 2 1 2 2 1 2 2 2 2 3 4 6 9 7 5 6 4 3 7 11 9 9 10 9 10 11 10 13 18 16 13 13 9 5 5 5 6 6 2 2 3 4 3 3 1 3 7 4 2 6 8 8 6 6 6 6 6 6 7 8 7 9 11 12 11 10 10
12 12 13 13 12 13 14 14 15 16 14 10 5 4 6 5 2 2 1 1 2 2 2 2 2 1 2 2 3 3 4 5 7 6 3 3 4 3 5 9 8 7 10 12 12 13 15 18 20 17 14 14 13 11 12 11 7 4 3 3 2 3 3 3 2 3 6 4 2 2 2 2 1 4 4 4 4 3 4 5 5 7 9 8 7 7 7
11 11 12 12 11 12 12 12 12 13 13 10 5 3 5 4 2 1 1 1 2 2 2 2 2 1 2 3 4 4 6 6 4 4 3 5 7 6 7 8 6 5 8 11 13 15 19 20 18 15 13 13 13 12 11 11 9 7 4 3 2 3 4 3 1 2 5 6 5 2 3 2 1 2 2 3 4 4 5 7 8 6 4 4 5 6 6
11 11 11 12 11 10 11 10 9 10 11 8 4 2 3 3 1 1 1 1 2 1 1 2 3 2 3 4 4 5 7 7 6 5 6 8 10 9 8 6 5 5 9 13 16 18 17 14 10 9 9 9 9 8 6 6 6 5 6 5 5 5 5 3 1 2 3 4 4 3 2 0 2 2 4 5 5 5 7 9 8 5 1 2 4 6 9
11 11 10 11 10 9 9 9 8 7 8 7 4 2 3 3 1 1 0 1 3 1 2 5 5 4 4 5 6 6 7 7 8 7 8 8 9 9 5 3 4 8 12 15 17 15 11 7 5 5 7 6 1 1 2 4 4 4 3 6 5 7 5 3 1 2 2 2 3 1 1 2 3 3 5 6 4 4 5 5 5 3 3 4 5 7 10
12 12 10 10 10 9 8 9 8 7 7 6 4 3 2 1 1 1 1 1 3 2 3 5 4 3 4 7 8 7 5 6 7 6 6 6 7 9 6 5 9 13 12 11 10 6 4 3 4 5 6 7 5 4 7 7 5 6 6 5 5 5 4 3 1 1 1 2 3 1 1 2 3 2 5 5 5 6 3 2 4 3 1 7 9 8 9
13 12 11 11 10 10 9 8 9 9 7 5 4 3 1 1 2 1 1 1 3 3 3 2 1 2 6 8 8 7 5 5 5 6 6 4 5 6 6 10 17 17 10 6 4 3 3 2 4 4 4 5 4 4 7 7 5 4 6 9 9 4 1 3 2 1 1 2 3 2 3 2 3 5 9 10 10 9 5 2 3 3 1 7 11 10 9
13 12 12 11 11 11 10 9 9 9 8 6 5 5 2 2 2 2 2 2 2 3 2 3 2 2 6 6 6 6 5 5 6 7 5 3 5 7 8 11 16 13 6 3 2 3 3 3 3 3 2 2 3 4 5 6 7 7 6 8 9 5 1 1 2 2 3 3 2 2 2 1 4 10 13 14 13 9 3 2 2 3 2 8 11 12 11
14 13 12 12 12 12 11 9 9 10 8 7 6 5 3 3 2 2 2 1 2 3 4 4 2 2 4 4 4 4 3 3 5 5 4 5 8 9 8 8 9 7 4 3 3 3 3 3 3 3 2 2 3 4 4 5 7 11 13 11 9 7 4 3 4 5 7 6 3 1 1 1 6 12 15 16 13 5 0 1 3 5 8 10 10 12 12
16 14 13 13 13 13 12 11 10 9 9 7 6 7 7 5 4 3 2 1 2 3 4 4 3 3 3 3 3 3 2 3 4 4 4 5 5 5 7 7 5 3 4 4 3 3 3 3 3 2 2 3 3 2 4 5 4 7 9 8 7 7 5 4 5 6 8 7 3 2 1 2 5 12 16 17 11 2 2 4 5 9 13 11 9 12 12
18 16 15 14 13 14 13 12 10 9 9 7 6 7 7 5 5 5 3 2 3 3 4 4 4 4 4 3 3 3 2 4 5 4 4 4 2 4 7 4 2 3 3 3 2 2 2 2 2 0 1 3 2 2 3 4 3 4 6 5 5 6 5 5 6 6 6 4 3 3 2 2 5 12 13 10 6 3 4 7 9 10 12 11 10 10 10
20 19 17 16 14 14 14 13 11 10 10 8 8 9 8 6 6 7 6 4 3 4 8 10 11 11 8 5 4 4 2 4 5 4 3 4 3 7 6 2 1 3 3 2 3 2 1 2 2 0 1 3 2 2 3 3 4 3 3 3 3 4 4 5 5 5 4 4 3 4 3 5 11 14 9 5 5 5 6 8 10 10 10 10 10 9 9
21 20 19 18 16 15 15 14 12 11 10 9 9 9 10 7 5 6 7 6 4 4 5 6 9 13 13 12 12 11 8 7 8 5 3 4 2 3 3 3 2 3 2 2 2 2 1 1 2 1 2 2 1 1 3 5 5 4 3 2 3 2 2 3 4 3 4 5 4 3 5 9 11 10 7 7 9 8 7 8 10 10 9 8 8 9 9
22 21 20 19 18 16 15 15 13 11 11 10 9 10 10 8 5 5 7 8 7 8 12 14 17 21 24 24 24 23 21 20 20 15 6 3 2 3 4 4 2 2 2 1 2 2 2 2 2 2 3 2 1 2 2 2 4 5 2 1 2 3 2 3 3 2 2 4 6 8 9 11 9 7 8 11 12 10 8 8 9 9 8 7 8 10 11
22 21 20 20 19 17 16 15 14 13 12 11 11 11 11 10 8 8 9 9 8 11 18 21 20 19 19 17 15 15 17 21 25 23 14 7 3 3 5 5 3 2 2 1 1 1 2 2 1 2 3 2 1 2 2 2 3 4 3 1 3 4 3 1 2 5 5 6 9 10 10 12 13 12 9 8 8 9 9 8 8 9 9 7 7 10 12
23 22 21 20 20 18 17 16 15 14 13 13 13 13 12 12 11 9 8 5 3 5 9 8 5 6 8 7 5 7 10 14 17 20 19 14 6 2 3 4 3 2 3 3 2 1 0 2 1 1 2 2 2 1 2 3 3 2 3 3 4 3 2 1 3 5 5 5 8 10 13 16 17 14 10 7 9 11 10 7 8 10 10 9 8 10 12
23 22 21 20 20 19 18 17 16 14 14 14 13 12 11 12 11 8 6 4 2 2 3 3 3 5 5 7 9 12 14 13 13 14 18 20 16 10 8 6 7 6 5 3 1 1 1 2 2 2 3 3 2 2 2 3 2 1 1 4 4 2 3 4 4 4 4 7 11 15 17 15 12 9 10 11 12 15 14 11 9 10 11 11 9 8 9
23 22 21 20 20 19 18 17 16 15 14 14 13 12 12 12 10 8 6 4 2 2 3 4 6 5 6 12 18 18 15 13 13 13 18 21 23 23 19 12 8 9 6 1 0 2 3 3 3 3 4 3 2 2 3 3 3 1 1 3 4 2 3 5 5 5 6 8 10 16 18 15 14 16 18 17 16 17 17 15 12 11 10 11 10 9 8
22 21 20 19 19 19 19 17 16 15 14 14 13 13 13 13 12 11 9 5 1 1 3 3 4 7 12 18 23 20 15 13 13 14 17 20 22 26 24 14 8 6 4 2 2 2 3 3 3 4 4 3 2 3 3 3 3 2 2 3 3 3 5 5 5 5 5 7 11 13 12 11 15 20 21 20 18 17 16 15 15 12 10 10 11 12 11
20 19 19 19 19 19 19 17 17 15 14 13 13 12 13 15 15 14 14 11 7 3 2 3 6 11 14 14 17 20 19 16 14 13 17 19 20 23 21 14 7 4 3 2 2 2 3 3 3 2 2 2 2 2 2 1 1 1 1 2 2 2 3 4 5 5 7 10 13 11 7 8 14 18 19 19 16 14 15 16 16 14 12 10 9 11 13
19 18 19 19 19 20 19 18 17 15 13 12 10 9 12 14 16 16 16 16 14 7 2 3 6 8 9 11 16 21 21 17 13 13 15 15 16 19 18 12 7 4 4 3 2 3 3 4 3 2 2 3 2 2 2 1 2 2 0 3 4 3 2 3 5 7 9 11 12 11 9 11 15 17 19 16 12 11 15 16 15 14 12 11 9 9 10
19 18 18 18 19 20 19 18 17 15 13 12 8 5 5 7 9 12 13 14 15 9 2 3 4 4 6 9 12 15 19 20 17 14 13 11 11 14 15 12 6 4 4 2 3 3 3 3 3 3 3 3 3 1 1 1 2 2 2 7 8 7 6 5 4 6 8 9 11 12 12 13 13 14 15 14 12 14 15 16 16 15 13 12 11 10 9
18 19 18 17 18 19 18 18 17 15 14 13 8 2 1 2 3 6 7 9 11 7 2 2 4 4 5 5 5 10 17 20 16 12 10 9 7 8 11 10 6 4 5 3 2 3 2 3 3 2 3 2 3 2 2 1 2 3 6 8 8 7 8 8 7 6 7 8 11 13 13 11 10 10 13 17 20 19 16 16 17 15 13 13 12 9 8
17 17 16 16 18 18 18 19 17 16 18 18 12 5 2 2 5 10 12 10 7 4 1 2 3 3 3 4 7 11 14 12 8 6 6 4 3 3 5 6 4 4 5 3 1 2 3 3 3 2 2 2 3 1 2 2 1 5 7 8 7 7 8 9 9 8 6 7 10 12 13 13 13 13 14 18 19 17 15 17 17 14 12 11 10 9 9
15 15 15 15 17 18 19 19 17 16 17 17 16 13 8 7 11 14 11 4 2 3 2 0 2 3 2 4 7 7 6 5 3 4 4 3 1 2 2 1 0 1 3 3 2 3 2 2 2 3 3 1 2 2 2 1 1 5 7 7 6 8 10 9 8 7 7 7 8 8 10 13 15 15 15 15 15 13 13 14 15 13 11 9 9 9 10
12 12 13 14 16 19 19 17 15 15 14 13 15 18 16 12 12 14 13 8 3 0 1 1 1 3 3 3 4 4 4 3 2 2 3 3 1 1 2 2 3 1 2 2 1 1 2 1 2 2 2 1 2 2 1 2 4 5 6 6 8 9 11 11 10 9 9 9 8 7 9 10 11 12 13 14 15 15 14 14 14 13 11 9 8 8 8
11 12 13 14 17 19 18 16 15 14 12 10 10 11 10 9 9 11 15 13 4 1 1 2 1 3 3 3 4 4 4 3 2 2 2 3 2 1 1 1 3 1 2 1 0 1 2 1 2 1 2 1 2 1 2 4 5 6 7 8 10 10 11 12 13 13 12 11 10 11 11 11 11 12 13 15 16 16 15 15 14 13 11 9 7 7 8
12 12 13 16 19 19 15 13 15 13 9 7 8 4 1 2 4 6 11 14 8 3 1 1 2 3 1 1 4 4 4 4 3 2 1 2 3 2 2 2 2 2 1 1 1 2 2 1 1 1 2 1 1 2 3 2 5 8 8 8 9 8 8 10 12 15 15 14 12 12 12 13 14 13 13 14 15 15 15 16 15 14 13 11 7 7 8
15 17 19 21 19 14 7 7 11 12 8 7 7 4 2 2 3 4 7 9 9 6 2 1 3 3 2 2 4 3 4 3 3 3 2 2 2 2 2 2 2 2 2 3 2 2 2 1 1 0 1 1 2 3 2 1 4 7 7 7 8 8 8 9 11 13 16 16 15 13 14 14 14 12 13 15 17 17 17 15 14 13 13 11 6 5 6
21 24 25 21 13 5 1 4 9 11 10 8 6 3 2 2 2 2 2 3 4 4 3 2 4 2 2 2 4 2 2 2 2 3 2 2 1 2 1 1 1 1 2 3 4 2 1 3 2 2 1 2 1 2 2 2 3 4 5 6 7 8 9 9 10 11 13 14 15 15 16 17 16 14 13 15 17 16 15 13 12 11 10 8 5 4 4
28 24 17 11 5 2 3 6 8 10 11 9 5 2 0 1 1 1 1 1 1 2 2 3 4 3 4 5 5 3 2 2 2 2 2 2 1 2 1 1 1 1 2 3 4 1 2 3 2 2 1 3 3 3 3 4 4 4 5 6 6 8 9 8 8 8 8 9 12 13 13 14 16 15 14 13 14 15 14 12 12 10 9 7 5 3 3
23 15 7 4 3 5 7 11 11 10 8 5 2 1 1 1 1 2 1 1 1 2 2 3 2 2 4 5 5 3 4 4 2 2 2 2 1 1 0 1 2 0 1 3 3 1 1 2 2 1 1 3 4 4 4 4 5 5 6 6 7 9 9 9 9 10 9 9 11 11 11 12 13 13 12 12 13 15 14 13 12 10 8 8 7 4 4
16 10 5 5 8 11 14 14 11 6 3 2 1 1 1 1 1 1 1 1 3 3 2 2 1 2 4 5 4 3 4 4 2 2 1 2 2 0 0 2 2 1 0 4 3 1 2 1 2 1 3 4 5 4 4 6 7 7 8 8 8 9 10 11 12 12 11 10 10 10 12 13 13 11 11 11 12 12 12 12 12 11 10 9 8 8 10
16 14 13 14 15 14 12 8 5 2 1 1 1 1 1 1 1 1 1 2 3 2 1 2 3 3 4 5 4 3 3 2 1 2 1 2 2 1 1 2 1 1 2 4 1 3 2 1 2 3 4 4 5 5 5 7 9 10 11 10 9 10 10 11 13 14 13 12 10 10 12 14 13 13 14 14 13 13 13 13 11 11 12 13 11 11 12
18 20 19 15 10 6 4 2 1 1 1 1 1 1 2 1 1 1 2 2 1 2 2 2 2 2 2 3 3 2 2 2 1 1 1 2 2 1 1 1 1 1 3 2 2 2 1 2 2 3 4 5 5 5 6 8 10 11 11 10 11 13 14 13 13 16 17 15 14 14 16 15 15 18 21 20 16 14 14 15 15 15 15 15 12 11 12
20 15 10 5 2 1 2 2 1 1 2 2 2 2 3 2 2 2 2 2 2 2 3 3 2 2 2 2 1 1 1 1 1 1 1 2 1 1 1 1 2 2 2 1 1 1 2 3 3 3 4 5 5 6 8 9 10 11 13 13 13 14 15 14 14 15 16 16 16 17 17 17 17 20 22 21 18 14 13 14 17 19 17 13 10 10 12
12 4 2 2 1 1 1 1 1 2 3 3 3 3 3 3 3 4 4 3 2 1 2 2 4 3 2 2 0 0 1 0 1 0 1 0 1 0 2 2 2 1 1 2 2 2 2 2 3 4 6 8 8 9 10 10 9 10 13 15 14 12 12 13 14 13 12 14 15 16 16 16 15 15 17 21 22 19 15 15 17 18 15 9 7 8 10
3 1 3 3 2 2 1 2 3 3 3 3 3 4 4 3 3 3 2 2 2 2 2 2 3 2 2 1 0 0 1 1 0 1 0 2 0 2 2 1 0 1 1 1 2 2 2 3 4 5 7 9 9 9 9 9 9 9 11 12 14 14 14 14 15 14 14 15 17 16 15 15 14 14 16 20 22 21 20 18 17 15 11 6 3 6 9
1 1 2 1 2 2 2 3 3 3 2 2 3 4 3 3 2 2 2 3 3 3 2 2 1 1 1 0 0 1 1 1 0 2 0 1 1 2 1 1 1 1 1 1 2 2 3 4 5 5 7 9 9 10 10 9 10 11 11 12 13 15 16 16 16 15 16 18 18 16 15 16 17 17 16 17 19 21 21 18 13 8 6 3 3 7 9
2 2 1 1 2 2 3 3 2 1 1 2 2 2 1 1 1 3 3 3 3 3 3 2 1 0 1 1 1 1 1 1 0 2 1 1 0 1 1 1 1 2 1 1 2 3 4 4 5 6 7 8 8 9 9 9 11 13 14 14 14 15 16 16 15 16 18 18 16 13 14 17 18 17 16 15 16 17 16 13 9 5 4 3 5 8 10
3 2 1 1 1 1 2 2 2 1 2 2 2 1 1 2 3 4 3 2 3 3 3 3 2 1 1 1 1 1 1 0 0 1 1 1 0 1 1 1 3 3 2 2 2 3 4 4 4 6 7 7 7 8 9 10 11 12 13 13 14 15 14 15 16 19 21 20 15 14 16 18 17 16 15 13 10 10 12 11 10 9 9 8 7 10 12
2 1 1 1 1 1 1 2 2 1 2 1 2 2 2 2 3 3 2 2 2 2 2 2 1 1 1 0 1 1 1 2 1 1 1 1 2 1 1 2 3 3 3 3 3 4 4 4 4 6 7 8 8 9 10 11 11 11 12 14 16 17 17 18 20 22 22 21 19 19 19 17 16 15 14 10 8 11 14 13 11 11 12 11 9 10 11
0 0 1 1 2 2 2 2 2 2 2 2 2 2 2 2 3 3 2 3 3 3 3 2 1 2 2 1 0 1 1 1 1 1 1 2 2 1 1 3 5 4 3 4 4 4 3 4 4 5 6 8 8 9 10 11 11 12 14 16 18 18 19 20 21 21 21 21 21 20 18 17 18 18 16 13 13 12 12 12 13 13 11 9 8 7 8
1 1 1 1 1 2 2 2 1 1 2 2 2 2 2 2 3 3 2 4 4 3 3 2 2 3 1 2 2 1 0 1 1 0 2 3 2 2 3 5 5 4 3 4 4 3 3 3 4 4 5 7 8 9 11 11 12 13 15 17 18 18 18 19 20 20 20 20 20 19 19 21 21 17 13 11 10 7 5 7 11 11 9 9 10 12 13
Wind_Direction
345 343 344 346 347 351 353 355 360 0 357 355 357 359 21 72 289 319 356 350 345 28 75 334 8 55 279 286 263 279 288 292 299 314 341 0 9 359 329 255 254 252 250 281 301 303 281 245 225 235 253 248 242 219 158 260 238 196 247 154 148 154 201 250 265 264 269 280 267 187 173 144 222 240 222 214 228 236 221 203 175 188 208 193 229 257 267
341 341 342 345 347 350 354 356 358 2 1 355 353 359 104 193 257 302 0 351 356 61 91 335 342 311 309 325 314 299 254 296 316 305 312 333 353 331 300 279 290 288 295 284 260 270 278 244 237 250 254 251 244 202 179 229 225 196 209 176 157 189 199 223 274 290 304 330 12 34 22 163 221 246 216 205 218 241 283 281 173 236 233 208 223 261 263
338 340 342 343 345 349 354 355 357 1 359 352 352 352 263 331 271 274 349 11 31 93 140 132 226 297 326 333 315 321 307 291 294 271 267 296 328 291 282 284 252 285 307 280 260 253 240 241 266 271 256 270 275 230 214 225 214 227 234 184 144 208 208 181 249 277 289 301 310 114 131 208 232 257 218 199 204 209 221 223 170 227 241 205 211 258 270
337 340 342 341 343 347 351 354 357 359 355 350 352 352 304 14 24 306 336 17 44 83 121 82 91 289 335 324 310 347 334 306 304 287 258 327 349 296 273 28 46 334 334 322 305 281 227 227 263 282 276 281 278 273 278 262 256 265 253 189 141 243 244 205 233 244 238 252 256 218 170 201 245 264 244 213 207 204 193 166 189 215 245 240 225 240 267
335 339 340 340 342 345 348 353 357 358 355 351 352 4 58 53 47 358 344 341 16 40 44 57 63 256 242 273 326 0 339 318 323 313 275 334 346 312 230 35 22 331 332 329 308 299 278 250 255 270 272 277 286 295 291 273 276 287 254 164 144 282 266 214 222 239 238 240 258 257 234 239 247 255 261 245 226 205 191 211 219 181 200 259 243 221 246
335 339 339 339 343 344 347 353 357 359 358 354 359 17 41 46 94 127 53 297 324 14 345 359 355 306 246 199 357 3 352 348 345 317 308 335 345 0 348 348 343 315 316 318 291 300 307 280 263 276 279 293 310 313 305 288 302 351 110 148 146 281 263 222 213 249 247 229 246 257 243 240 242 239 250 253 232 202 202 222 222 171 199 246 246 216 234
337 340 338 339 342 343 347 351 355 2 1 1 28 49 9 55 62 324 18 335 246 246 310 331 338 319 303 357 12 1 341 341 328 291 310 322 309 56 338 316 321 320 315 307 278 296 310 295 293 306 305 306 314 316 311 315 14 64 107 167 236 231 254 239 214 262 269 238 232 243 238 236 240 234 236 235 228 217 216 226 221 206 226 248 259 254 253
336 339 337 338 339 341 348 350 354 4 6 10 51 55 11 43 33 324 355 322 273 258 315 333 334 321 336 4 351 333 315 323 317 287 259 275 285 339 330 314 319 319 311 297 265 266 273 276 283 296 305 306 307 302 279 283 353 24 107 180 201 209 254 265 202 268 289 265 222 226 230 228 234 243 243 236 236 232 228 232 222 215 236 248 254 262 265
330 335 336 336 336 340 346 350 354 4 13 27 62 52 15 25 30 341 339 300 306 308 305 350 38 334 348 14 339 328 322 324 324 305 228 218 253 312 321 315 317 311 301 292 278 274 276 276 277 278 277 274 277 275 259 271 318 331 297 220 216 219 267 303 283 284 291 289 227 229 228 220 229 262 272 252 232 222 226 232 216 210 231 244 249 254 260
322 327 332 334 335 337 341 350 355 2 17 41 67 34 14 19 12 29 52 293 337 16 328 0 36 299 303 348 341 312 291 301 320 318 281 233 242 253 302 306 309 308 299 292 290 294 295 287 282 279 269 257 257 257 256 263 278 282 283 290 233 220 272 292 296 293 281 295 335 259 193 120 257 276 283 262 247 256 266 262 240 225 227 234 242 246 262
315 319 324 328 333 335 336 345 355 360 13 37 60 34 17 17 346 14 57 314 324 13 13 2 9 343 330 339 332 298 290 304 318 312 312 303 291 295 307 301 292 285 283 287 296 301 295 286 279 274 265 256 252 250 254 259 249 229 238 278 265 248 272 274 250 267 282 308 332 350 82 66 271 257 276 256 250 271 280 276 267 256 241 235 250 271 296
305 310 315 319 327 332 330 336 350 355 358 12 45 63 32 29 330 283 30 322 300 339 27 297 267 275 305 311 308 294 292 300 298 277 273 283 292 300 305 302 297 286 290 301 307 307 302 296 288 278 271 263 242 227 244 265 254 228 212 229 279 298 292 283 255 240 276 314 341 14 72 201 246 269 280 260 230 236 264 279 268 237 179 336 311 314 318
292 300 305 309 316 323 322 323 331 338 339 344 5 33 26 35 8 275 305 304 285 266 296 290 272 267 289 300 297 285 276 279 282 275 266 269 283 291 284 260 277 291 303 309 309 310 313 317 319 309 308 321 338 176 320 338 345 333 240 216 265 308 313 300 254 259 292 326 346 17 167 255 272 276 276 274 255 245 266 295 275 209 102 15 328 319 322
281 287 292 296 302 308 308 308 309 310 318 324 328 338 0 48 94 321 350 290 275 266 289 299 290 268 291 310 311 299 280 276 276 274 267 258 271 286 288 280 288 297 306 310 310 320 334 338 345 336 336 357 16 349 336 350 3 350 334 304 300 311 311 309 298 266 329 325 306 310 39 327 306 295 297 299 301 295 286 290 273 239 68 4 333 316 309
276 275 278 283 291 294 294 296 297 297 303 313 316 312 316 118 147 205 222 280 295 297 273 232 199 307 312 317 320 316 307 303 299 294 286 259 253 275 285 291 298 304 308 306 316 352 0 3 6 354 355 12 2 318 324 335 329 336 345 330 320 313 281 311 318 292 303 309 298 334 19 346 289 312 319 314 309 301 269 212 256 237 74 357 330 306 293
278 272 269 273 279 282 284 285 286 291 295 301 309 302 262 157 151 211 232 261 287 286 247 196 169 326 314 306 308 308 305 313 321 315 304 295 297 296 287 288 298 306 313 316 337 14 14 22 14 345 341 0 329 297 314 330 318 317 339 335 324 322 276 274 307 323 334 333 309 337 21 297 300 326 329 324 321 312 261 213 266 258 333 345 319 305 306
280 274 268 266 269 272 276 276 277 282 283 282 297 298 256 190 166 208 230 233 243 256 264 255 247 291 292 288 298 293 268 288 306 304 307 321 317 310 309 310 309 313 339 0 10 33 27 13 3 348 309 313 324 304 312 335 322 321 333 341 345 352 356 357 1 350 340 335 316 311 80 271 317 335 337 332 329 324 126 344 295 303 328 329 310 307 314
276 275 270 265 261 263 267 269 269 272 271 270 282 290 274 235 198 203 219 241 258 264 264 247 209 205 235 254 284 288 269 281 289 286 297 304 297 303 320 328 325 327 6 18 15 28 24 358 357 6 283 293 332 328 319 329 316 315 324 323 330 346 351 0 3 345 334 333 323 310 261 250 323 344 339 330 329 3 42 341 310 312 318 314 311 315 316
269 270 269 264 258 255 259 263 262 261 263 263 268 279 277 243 216 232 244 233 231 246 262 255 237 240 250 248 256 267 263 273 281 292 302 294 290 321 316 313 335 340 350 3 349 9 33 346 328 69 254 298 333 331 306 301 285 303 317 309 320 344 343 345 350 341 331 322 295 302 283 243 335 341 329 321 338 9 328 304 298 304 306 303 311 316 312
269 266 264 263 258 250 251 256 253 248 251 251 253 267 273 261 247 245 240 238 263 277 272 262 251 249 249 235 227 239 257 274 273 267 266 275 339 351 327 301 31 345 326 351 345 341 27 331 315 2 262 285 300 298 291 284 262 263 287 297 311 330 333 337 342 337 327 317 318 347 339 314 333 339 331 332 351 323 289 297 305 306 302 301 308 313 313
272 266 259 258 256 248 245 249 246 240 241 240 243 260 272 273 260 238 237 250 275 286 273 256 246 248 249 244 240 238 235 242 249 245 251 271 309 346 311 300 0 342 317 342 326 300 317 316 308 337 311 286 298 318 311 314 300 262 229 253 294 320 342 337 338 348 344 336 337 335 300 299 320 335 323 306 307 292 281 304 314 311 311 310 307 308 310
275 268 259 254 252 246 242 242 240 235 234 233 234 244 258 270 268 256 263 266 261 263 270 276 277 274 270 267 262 254 248 249 252 252 253 274 258 226 260 289 292 243 248 322 313 300 334 337 310 314 305 285 288 293 285 300 301 293 291 285 295 314 316 287 281 286 288 283 275 271 277 288 301 307 293 288 293 293 288 292 299 304 308 307 304 306 308
274 270 261 253 248 245 240 238 237 234 230 228 229 232 244 260 264 271 284 280 267 269 273 276 284 285 278 275 272 261 252 252 254 251 241 233 248 243 241 254 254 232 230 225 213 247 287 291 292 298 286 258 222 279 299 283 265 288 310 271 254 283 304 257 259 279 269 253 256 267 289 305 307 305 294 277 284 296 295 289 293 296 294 288 288 296 302
274 269 262 253 245 241 238 235 234 233 229 227 229 234 245 256 260 272 288 283 275 291 283 276 281 280 277 290 308 290 268 256 256 257 244 225 216 271 257 218 199 219 248 237 208 120 276 271 268 254 263 245 198 228 292 275 246 265 314 305 280 290 337 335 283 294 307 298 289 301 314 312 308 309 311 306 308 312 309 298 292 290 291 290 286 287 294
272 268 262 253 243 237 235 233 231 230 228 227 228 233 243 253 258 264 267 260 262 306 303 298 275 263 284 304 295 288 287 278 269 264 247 225 213 227 250 229 210 230 253 255 267 10 295 265 271 271 266 250 210 213 252 255 253 273 333 309 297 307 345 329 295 289 297 286 293 311 315 303 295 307 322 326 327 323 319 315 302 289 289 292 290 288 294
271 267 261 254 245 235 231 230 228 227 227 227 227 229 236 248 255 249 244 259 279 252 255 285 277 276 315 314 299 296 300 291 272 259 249 238 228 232 245 253 247 251 263 289 258 228 225 240 252 250 251 239 201 207 226 240 261 274 257 269 274 292 330 324 305 301 296 287 305 328 331 325 326 332 331 329 328 322 319 318 313 303 297 299 300 297 289
271 267 261 253 245 234 229 227 226 225 225 225 228 233 239 246 250 244 237 239 254 258 255 258 273 295 308 304 301 305 308 295 280 262 251 247 239 236 241 248 256 256 260 289 281 216 195 232 241 222 226 229 207 219 233 240 252 269 276 278 292 332 339 328 321 321 316 312 323 335 338 327 320 320 319 318 320 320 318 317 316 316 313 308 307 308 307
268 265 259 252 243 233 225 222 220 221 223 225 231 239 245 248 248 247 244 238 232 251 288 263 285 305 304 296 300 310 310 301 290 270 255 250 242 235 234 235 240 235 204 206 248 201 180 213 229 221 227 227 219 244 266 289 279 263 278 288 293 323 332 320 320 317 299 296 305 313 312 298 297 304 309 311 315 319 318 315 315 316 316 311 306 310 315
263 259 254 249 242 231 221 216 215 215 215 219 227 244 259 259 252 248 248 243 234 236 301 294 280 294 298 297 303 308 309 309 300 281 270 258 238 227 225 226 226 208 180 179 202 202 208 220 220 231 225 191 186 260 291 314 280 236 44 353 330 315 286 266 286 297 291 292 300 305 303 299 298 301 303 302 307 318 317 314 313 311 311 310 305 303 307
260 254 248 243 238 229 217 210 209 206 203 204 210 239 278 274 251 239 237 230 222 219 257 307 277 288 301 299 298 301 309 317 316 301 285 269 240 222 216 216 213 189 176 195 207 200 229 249 241 265 257 196 166 218 239 243 256 248 342 353 342 331 323 311 294 286 287 295 306 305 297 292 293 298 301 306 320 328 322 316 313 310 308 309 309 308 308
257 251 244 237 230 223 212 204 203 199 192 187 179 176 287 273 220 199 180 176 189 199 227 271 270 303 308 285 279 299 308 312 314 308 294 281 267 240 212 199 193 181 178 197 215 198 216 237 234 276 279 201 170 180 183 179 282 297 328 339 332 321 323 322 313 294 289 302 314 310 300 297 307 321 325 326 328 328 323 316 313 308 305 307 308 306 304
253 246 237 229 222 213 204 198 197 194 192 191 190 193 186 150 161 156 142 138 163 187 226 283 281 313 314 283 290 302 304 300 304 321 309 277 279 282 214 187 184 190 179 165 195 216 207 203 216 272 279 193 168 152 121 109 348 307 315 322 320 322 327 324 315 308 305 318 326 321 318 323 330 331 324 318 317 318 317 315 313 309 304 306 311 313 315
244 235 225 219 211 200 194 192 192 194 198 204 215 221 207 169 163 165 159 154 211 193 160 312 288 275 281 295 302 313 323 315 321 349 331 252 236 337 303 234 65 210 186 168 196 229 214 168 198 280 293 209 144 120 117 117 299 298 304 313 322 330 328 320 315 316 319 327 330 320 310 312 314 312 308 308 310 315 317 316 317 315 313 320 331 334 336
229 220 212 206 197 189 186 185 185 193 200 212 233 241 237 224 208 202 211 233 269 25 162 175 269 272 290 326 317 333 10 357 319 347 335 280 258 351 289 305 7 1 217 199 199 268 292 236 202 248 291 317 83 93 189 271 298 308 318 329 337 337 333 330 332 334 331 328 321 301 288 292 297 304 312 319 324 327 329 328 328 327 324 325 332 337 340
207 199 195 191 182 176 175 174 177 187 198 213 236 250 251 240 229 223 222 221 209 85 205 197 219 272 310 335 297 302 0 358 285 255 273 282 308 1 260 326 353 303 234 228 3 301 280 232 193 236 279 314 57 72 232 267 308 333 343 342 342 343 340 335 332 329 327 326 319 310 310 315 319 323 328 330 330 332 331 330 331 332 326 320 330 343 342
181 179 176 170 162 158 159 170 181 188 199 216 221 221 205 198 193 195 206 208 205 205 215 179 197 219 211 283 274 297 350 348 291 272 280 293 312 338 72 64 337 272 254 34 1 273 272 230 183 299 318 70 120 233 238 268 329 339 340 335 333 333 327 320 318 318 319 320 317 316 323 328 329 330 331 329 328 330 331 329 331 334 326 321 336 357 344
166 163 154 148 145 143 147 177 193 198 204 206 200 191 166 157 154 163 189 203 213 218 202 195 230 214 163 200 256 306 350 326 300 326 325 289 292 318 53 70 281 279 2 10 289 243 282 351 113 86 322 155 185 237 257 320 334 328 325 320 320 323 318 314 317 319 319 321 325 328 331 329 327 329 332 330 329 331 330 328 328 326 317 310 321 344 334
157 152 145 140 136 132 177 202 202 202 195 175 156 153 162 139 132 166 196 197 211 212 189 206 237 207 136 199 244 281 319 301 344 359 309 262 297 318 1 62 245 268 0 313 263 234 4 14 76 122 213 266 274 281 298 317 312 307 306 304 309 316 317 317 323 326 325 326 329 331 330 327 324 326 329 328 325 323 321 319 318 315 308 301 305 326 329
151 145 141 141 141 133 170 180 179 176 173 170 160 149 164 126 127 212 223 202 220 218 198 222 232 188 172 217 252 260 238 257 355 344 276 276 314 300 314 335 294 337 21 304 285 337 18 338 0 91 212 293 308 303 304 315 312 300 292 290 298 310 313 314 318 317 310 305 306 308 311 313 313 314 319 321 318 316 314 314 315 314 309 300 299 317 334
147 139 130 144 148 130 139 151 152 143 141 154 170 123 112 189 193 173 162 204 229 221 204 211 227 200 188 210 249 259 211 186 171 212 241 259 264 247 11 303 267 347 32 281 283 357 61 296 321 22 236 281 296 297 303 314 311 305 306 305 307 312 314 313 311 307 297 289 291 293 295 294 295 299 306 311 311 309 309 310 311 310 306 299 299 316 327
153 149 141 141 139 133 133 139 144 136 109 96 144 146 162 215 213 142 130 209 232 250 234 166 173 256 221 195 208 246 234 208 177 144 168 278 283 96 102 265 271 47 282 253 261 58 71 340 308 266 243 272 290 293 306 317 318 321 325 321 316 315 314 312 311 311 308 303 301 300 300 299 297 297 301 303 302 300 301 303 304 302 297 288 289 305 312
167 155 138 129 128 129 129 130 130 117 86 102 173 203 198 205 195 142 192 210 216 239 238 170 178 221 207 174 178 221 233 216 160 97 106 271 272 156 179 280 358 63 240 248 275 54 50 314 278 266 271 291 297 301 318 328 326 324 323 320 317 316 315 313 314 314 313 311 306 304 304 302 299 299 302 302 298 294 293 293 295 295 291 287 291 303 308
148 136 127 121 119 121 127 128 110 108 130 155 198 195 196 222 241 214 237 255 238 207 215 212 205 206 178 163 184 229 235 213 176 109 166 261 279 59 44 345 27 205 243 267 45 49 267 230 228 257 289 307 308 312 324 325 321 318 317 316 316 314 312 312 312 312 312 312 308 306 306 303 299 302 305 302 297 293 292 293 294 290 284 284 295 310 312
131 125 116 105 91 111 137 137 125 144 181 194 194 186 195 213 207 185 204 241 245 211 209 197 168 175 213 214 183 226 251 230 151 108 249 267 317 56 57 255 239 244 275 4 40 268 248 223 224 268 306 318 319 324 328 326 325 322 317 316 318 315 312 313 314 313 314 315 312 309 308 305 302 304 305 301 297 296 294 294 296 294 287 286 302 320 322
127 120 97 91 113 150 150 144 154 186 204 200 193 193 196 196 196 201 207 209 199 208 223 185 145 153 214 262 332 229 259 332 52 274 261 339 19 313 230 229 244 297 358 351 311 288 279 275 294 321 331 330 328 329 326 322 322 319 313 313 317 317 315 318 320 317 315 314 313 312 310 306 304 304 302 300 299 299 294 289 292 293 289 286 305 329 337
120 133 128 130 155 176 172 168 177 198 217 204 188 194 198 190 192 206 206 190 184 201 208 186 147 146 194 243 312 346 31 64 69 249 198 85 75 249 235 221 297 5 12 307 277 258 262 285 311 330 330 324 322 321 319 318 318 315 310 310 314 318 321 320 318 315 311 310 311 310 306 303 301 299 298 299 301 299 295 291 289 284 277 273 312 341 342
74 122 116 125 156 161 181 201 197 200 207 192 188 203 207 200 213 234 212 198 200 194 171 145 121 142 222 203 297 311 348 48 323 267 302 96 214 269 307 26 260 240 239 277 281 274 283 303 320 324 319 319 319 318 318 319 317 313 313 313 316 320 322 319 314 312 311 311 311 309 305 302 301 299 298 300 299 297 295 294 289 275 262 275 344 354 345
132 145 151 168 162 173 208 210 180 176 215 199 192 201 177 140 243 259 234 192 175 166 153 142 137 220 297 1 64 272 297 16 308 267 272 115 188 298 337 338 264 258 237 245 276 293 298 303 310 312 312 317 319 317 318 318 315 316 319 321 320 319 318 314 311 311 309 307 305 302 299 298 298 298 296 293 292 295 300 305 307 311 323 335 345 350 344
114 126 144 160 153 194 213 173 143 210 242 209 175 182 169 175 233 250 234 178 166 171 170 160 148 162 244 317 67 77 284 265 178 297 345 33 347 280 289 279 284 289 271 239 256 288 297 302 311 316 317 319 319 316 315 316 317 318 320 320 317 316 314 311 309 310 308 303 298 295 295 295 295 295 292 286 290 313 326 326 324 334 345 346 342 343 341
93 122 154 151 142 179 186 137 137 210 236 197 184 205 197 204 244 257 224 174 166 137 107 102 104 108 124 57 53 25 279 241 167 103 7 263 224 227 260 253 248 252 256 257 266 282 295 309 320 319 318 320 322 319 318 319 320 320 319 318 317 315 314 312 310 309 306 302 299 297 295 292 290 291 292 293 315 335 335 331 333 341 343 339 338 347 355
71 100 236 197 162 166 164 146 159 198 204 186 202 213 186 190 239 250 207 160 146 119 113 137 127 77 72 74 138 216 256 257 104 103 247 245 210 171 225 251 245 244 260 276 277 279 295 313 322 321 320 323 324 322 321 320 319 317 318 319 319 318 316 315 313 312 310 309 309 307 303 298 296 297 300 313 332 339 334 333 344 356 1 1 9 26 43
143 163 216 196 143 145 141 128 154 199 182 170 193 200 173 196 241 250 191 144 143 151 162 153 103 92 122 203 203 171 122 23 48 215 250 252 229 195 214 239 251 251 256 272 288 303 316 315 312 307 311 318 323 323 320 319 318 320 322 323 323 321 321 319 319 319 320 319 317 313 309 307 306 303 300 312 331 336 320 328 352 14 40 62 73 82 89